7 * 24
多渠道服务支持
METOP SG-A是欧洲空间局(ESA)于2025年8月13日发射的新一代气象卫星,属于极轨气象卫星系列,旨在接续前代METOP卫星任务。它搭载了先进的大气探测、海洋观测与气候监测载荷,可获取高精度温湿度、风速、海表参数等数据,为全球数值天气预报、气候变化研究和极端天气预警提供关键支撑,进一步提升了欧洲乃至全球气象观测与预测能力,目前已在轨运行开展科学观测任务。
(ESA)
| 数据来源 | 国际轨道数据 |
| 星历时间: | 2026-03-13T21:35:55+0800 11小时前 查看轨道信息 |
| 半长轴: | 7198.657km |
| 偏心率: | 0.0001153 |
| 轨道倾角: | 98.675° |
| 近地点辐角 | 81.269° |
| 升交点赤经 | 133.964° |
| 平近点角 | 278.862° |
| 近地点: | 819.689km |
| 远地点: | 821.351km |
| 周期: | 101.306分钟 |
| 每日圈数: | 14.214305 |